Content
SEND FEEDBACK

Daily
Averages
Monthly
Summary
Canada

RICHMOND NATURE PARK, BRITISH COLUMBIA


Home > North America > Canada > British Columbia
Elevation: 10 feet     Latitude: 49 10N     Longitude: 123 05W

WEATHER
 
SELECT A DAY
Number of Records: 194,204;   Date Range: 1/1/95 - 7/11/14
 
SHARE

PRINT THIS DATA

[ ← Previous Day ]
WEATHER ALMANAC - AUGUST 1, 2013
[ Next Day → ]
[ °C ]   °F
Weather ElementAverageHighLow
Temperature64.8 °F69.8 °F (1:00 pm)59 °F (6:00 am)
Dewpoint57.2 °F60.8 °F (1:55 am)55.4 °F (6:00 am)
Humidity76 %94 % (4:00 am)55 % (5:00 pm)
Barometer30.02 in30.04 in (7:00 am)30.00 in (6:00 pm)
Wind Speed9.1 mph13.8 mph (4:00 pm)
Weather ElementAverage
Visibility17.8 mi
Wind DirectionESE (121.6 °)

Weather ElementTotal
Precipitation---
Heating Degree Days0.6 (Base 65)
Growing Degree Days14.4 (Base 50)
Averaged from 31 records on August 1, 2013
WEATHER CONDITIONS BREAKOUT
WIND DIRECTION BREAKOUT
WEATHER BY HOUR - AUGUST 1, 2013
[ °C ]   °F
Local TimeTemperatureDewpointHumidityBarometerVisibilityWind DirectionWind SpeedGust SpeedPrecipitationEventsConditions
12:39 AM66.2 °F57.2 °F73 %30.02 in20.0 miSE (130°)3.5 mphRainLight Rain
1:00 AM66.2 °F59.0 °F78 %30.02 in20.0 miVariable2.3 mphRainLight Rain
1:55 AM64.4 °F60.8 °F88 %30.01 in20.0 miVariable2.3 mphOvercast
2:00 AM64.4 °F59.0 °F83 %30.01 in20.0 miNorth (10°)3.5 mphOvercast
2:15 AM64.4 °F60.8 °F88 %30.01 in15.0 miNNW (330°)3.5 mphRainLight Rain
3:00 AM64.4 °F60.8 °F88 %30.01 in15.0 miSouth (180°)5.8 mphRainLight Rain
3:25 AM64.4 °F60.8 °F88 %30.01 in15.0 miSSE (160°)3.5 mphOvercast
4:00 AM62.6 °F60.8 °F94 %30.01 in20.0 miSSE (150°)8.1 mphOvercast
5:00 AM60.8 °F57.2 °F88 %30.01 in20.0 miSE (130°)6.9 mphMostly Cloudy
5:00 AM61.0 °F57.0 °F84 %30.01 in19.0 miESE (110°)6.9 mphPartly Cloudy
6:00 AM59.0 °F55.4 °F88 %30.02 in15.0 miESE (110°)10.4 mphScattered Clouds
7:00 AM59.0 °F55.4 °F88 %30.04 in15.0 miEast (100°)9.2 mphScattered Clouds
8:00 AM60.8 °F57.2 °F88 %30.04 in15.0 miEast (90°)8.1 mphScattered Clouds
9:00 AM62.6 °F55.4 °F77 %30.04 in15.0 miESE (120°)12.7 mphPartly Cloudy
10:00 AM64.4 °F55.4 °F73 %30.04 in20.0 miESE (110°)12.7 mphScattered Clouds
11:00 AM66.2 °F57.2 °F73 %30.03 in20.0 miSE (130°)6.9 mphScattered Clouds
11:00 AM66.0 °F57.0 °F65 %30.03 in19.0 miSE (140°)8.1 mphPartly Cloudy
12:00 PM68.0 °F57.2 °F68 %30.02 in20.0 miSE (140°)10.4 mphScattered Clouds
1:00 PM69.8 °F57.2 °F64 %30.02 in20.0 miSSE (160°)10.4 mphScattered Clouds
2:00 PM69.8 °F59.0 °F68 %30.01 in20.0 miESE (120°)9.2 mphMostly Cloudy
3:00 PM69.8 °F57.2 °F64 %30.01 in20.0 miSSE (160°)10.4 mphOvercast
4:00 PM69.8 °F55.4 °F60 %30.01 in20.0 miSE (140°)13.8 mphOvercast
5:00 PM68.0 °F55.4 °F64 %30.01 in20.0 miESE (120°)13.8 mphOvercast
5:00 PM68.0 °F56.0 °F55 %30.01 in19.0 miSE (130°)12.7 mphOvercast
6:00 PM68.0 °F55.4 °F64 %30.00 in20.0 miSSE (150°)11.5 mphOvercast
7:00 PM66.2 °F55.4 °F68 %30.00 in15.0 miESE (120°)13.8 mphOvercast
8:00 PM64.4 °F55.4 °F73 %30.01 in15.0 miEast (100°)12.7 mphOvercast
9:00 PM62.6 °F55.4 °F77 %30.02 in15.0 miESE (110°)12.7 mphOvercast
10:00 PM62.6 °F55.4 °F77 %30.02 in15.0 miESE (120°)10.4 mphOvercast
11:00 PM62.0 °F56.0 °F73 %30.02 in15.0 miEast (100°)11.5 mphOvercast
11:00 PM62.6 °F55.4 °F77 %30.02 in15.0 miEast (100°)13.8 mphOvercast
Hourly data recorded from CYVR, located miles away from Richmond Nature Park, British Columbia







STORIES FROM OUR PARTNERS